SCP
0 0 0 0 0 0 0 0 0 0 -0 0 0 -0 -0 0 0 0 0 -0 -0 -0 -0 -0 -0 -0 -0 -0 -0 -0 -0 -0 -0 -0 -0 -0 -0 -0 -0 -0 0 0 0 0 0 0 0 0 0
0 0 0 0 0 0 0 -0 0 0 0 0 0 0 0 0 0 0 0 0 -0 -0 -0 -0 -0 -0 -0 -0 -0 -0 -0 -0 0 0 0 0 0 0 0 0 0 0 0 0 0 0 0 0 0
0 0 0 0 0 0 0 0 0 0 0 0 0 -0 -0 0 0 0 0 0 -0 -0 -0 -0 -0 -0 -0 -0 -0 -0 -0 -0 0 0 0 0 0 0 0 0 0 0 0 0 0 0 0 0 0
0 0 0 0 -0 -0 0 0 0 0 0 0 0 0 0 0 0 0 0 0 0 0 -0 -0 -0 -0 -0 -0 -0 -0 -0 0 0 0 0 0 0 0 0 0 0 0 0 0 0 0 0 0 0
0 0 0 0 0 0 0 0 0 0 0 0 0 0 0 0 0 0 0 0 0 0 0 -0 -0 -0 -0 -0 -0 -0 0 0 0 0 0 0 0 0 0 0 0 0 0 0 0 0 0 0 0
0 0 0 0 0 0 0 0 0 0 0 0 0 0 0 0 0 0 0 0 0 0 0 0 0 -0 -0 0 0 0 0 0 0 0 0 0 0 0 0 0 0 0 0 0 0 0 0 0 0
0 0 0 0 0 0 0 0 0 0 0 0 0 0 0 0 0 0 0 0 0 0 0 0 0 0 0 0 0 0 0 0 0 0 0 0 0 0 0 0 0 0 0 0 0 0 0 0 0
0 0 0 0 0 0 0 0 0 0 0 0 0 0 0 0 0 0 0 0 0 0 0 0 0 0 0 0 0 0 0 0 0 0 0 0 0 0 0 0 0 0 0 0 0 0 0 0 0
0 0 0 0 0 0 0 0 0 0 0 0 0 0 0 0 0 0 0 0 0 0 0 0 0 0 0 0 0 0 0 0 0 0 0 0 0 0 0 0 0 0 0 0 0 0 0 0 0
0 0 0 0 0 0 0 0 0 0 0 0 0 0 0 0 0 0 0 0 0 0 0 0 0 0 0 0 0 0 0 0 0 0 0 0 0 0 0 0 0 0 0 0 0 0 0 0 0
0 0 0 0 0 0 0 0 0 0 0 0 0 0 0 0 0 0 0 0 0 0 0 0 0 0 0 0 0 0 0 0 0 0 0 0 0 0 0 0 0 0 0 0 0 0 0 0 0
0 0 0 0 0 0 0 0 0 0 0 0 0 0 0 0 0 0 0 0 0 0 0 0 0 0 0 0 0 0 0 0 0 0 0 0 0 0 0 0 0 0 0 0 0 0 0 0 0
0 0 0 0 0 0 0 0 0 0 0 0 -0 0 0 0 0 0 0 0 0 0 0 0 0 0 0 0 0 0 0 0 0 0 0 0 0 0 0 0 0 0 0 0 0 0 0 0 0
0 0 0 0 0 0 0 0 0 0 0 0 0 0 0 0 0 0 0 0 0 0 0 0 0 0 0 0 0 0 0 0 0 0 0 0 0 0 0 0 0 0 0 0 0 0 0 0 0
0 0 0 0 0 0 0 0 0 0 0 0 0 0 0 0 0 0 0 0 0 0 0 0 0 0 0 0 0 0 0 0 0 0 0 0 0 0 0 0 0 0 0 0 0 0 0 0 0
0 0 0 0 0 0 0 0 0 0 0 0 0 0 0 0 0 0 0 0 0 0 0 0 0 0 0 0 0 0 0 0 0 0 0 0 0 0 0 0 0 0 0 0 0 0 0 0 0
0 0 0 0 0 0 0 0 0 0 0 0 0 0 0 0 0 0 0 0 0 0 0 0 0 0 0 0 0 0 0 0 0 0 0 0 0 0 0 0 0 0 0 0 0 0 0 0 0
0 0 0 0 0 0 0 0 0 0 0 0 0 0 0 0 0 0 0 0 0 0 0 0 0 0 0 0 0 0 0 0 0 0 0 0 0 0 0 0 0 0 0 0 0 0 0 0 0
0 0 0 0 0 0 0 0 0 0 0 0 0 0 0 0 0 0 0 0 0 0 0 0 0 0 0 0 0 0 0 0 0 0 0 0 0 0 0 0 0 0 0 0 0 0 0 0 0
0 0 0 0 0 0 0 0 0 0 0 0 0 0 0 0 0 0 0 0 0 0 0 0 0 0 0 0 0 0 0 0 0 0 0 0 0 0 0 0 0 0 0 0 0 0 0 0 0
0 0 0 0 0 0 0 0 0 0 0 0 0 0 0 0 0 0 0 0 0 0 0 0 0 0 0 0 0 0 0 0 0 0 0 0 0 0 0 0 0 0 0 0 0 0 0 0 0
0 0 0 0 0 0 0 0 0 0 0 0 0 0 0 0 0 0 0 0 0 0 0 0 0 0 0 0 0 0 0 0 0 0 0 0 0 0 0 0 0 0 0 0 0 0 0 0 0
0 0 0 0 0 0 0 0 -0 0 0 0 0 0 0 0 0 0 0 0 0 0 0 0 0 0 0 0 0 0 0 0 0 0 0 0 0 0 0 0 0 0 0 0 0 0 0 0 0
0 0 0 0 0 0 0 0 0 0 0 0 0 0 0 0 0 0 0 0 0 0 0 0 0 0 0 0 0 0 0 0 0 0 0 0 0 0 0 0 0 0 0 0 0 0 0 0 0
0 0 0 0 0 0 0 0 0 0 0 0 0 0 0 0 0 0 0 0 -0 0 0 0 0 0 0 0 0 0 0 0 0 0 0 0 0 0 0 0 0 0 0 0 0 0 0 0 0
0 0 0 0 0 0 0 0 0 0 0 0 0 0 0 0 0 0 -0 -0 -0 -0 0 0 0 0 0 0 0 0 0 0 0 0 0 0 0 0 0 0 0 0 0 0 0 0 0 0 0
0 0 0 0 0 0 0 0 0 0 0 0 0 0 0 0 0 0 -0 -0 -0 -0 0 0 0 0 0 0 0 0 0 0 0 0 0 0 0 0 0 0 0 0 0 0 0 0 0 0 0
0 0 0 0 0 0 0 0 0 0 0 0 0 0 0 -0 0 -0 -0 -0 -0 -0 0 0 0 0 0 0 0 0 0 0 0 0 0 0 0 0 0 0 0 0 0 0 0 0 0 0 0
0 0 0 0 0 0 0 0 0 0 0 0 -0 -0 -0 -0 -0 -0 -0 -0 0 0 0 0 0 0 0 0 0 0 0 0 0 0 0 0 0 0 0 0 0 0 0 0 0 0 0 0 0
0 0 0 0 0 0 0 0 0 0 0 0 0 -0 -0 -0 -0 -0 -0 -0 0 0 0 0 0 0 0 0 0 0 0 0 0 0 0 0 0 0 0 0 0 0 0 0 0 0 0 0 0
Wind_Speed_500mb
16 10 12 5 6 8 7 11 6 7 8 7 15 15 18 15 6 7 23 21 22 10 14 19 27 31 27 23 20 17 15 13 10 8 10 10 11 9 4 7 10 12 9 8 7 2 1 15 20
7 3 5 3 7 3 10 7 8 8 10 13 9 5 6 4 14 24 26 14 17 12 14 18 24 28 27 24 19 16 15 13 11 11 12 15 13 10 9 10 9 8 11 6 8 10 12 14 17
5 1 3 6 5 9 6 4 14 13 16 9 5 7 12 13 22 23 16 16 19 15 15 15 24 26 27 25 20 16 13 12 9 10 10 11 13 16 18 16 18 17 15 8 13 17 17 16 21
12 7 4 6 11 15 8 7 17 7 10 4 7 9 14 14 24 17 19 20 19 16 14 12 23 24 25 24 21 19 14 11 8 9 8 6 7 19 25 26 25 23 17 18 18 21 18 21 25
8 3 3 3 11 13 6 14 17 7 2 10 5 7 12 17 17 17 19 24 17 20 16 13 13 21 24 23 23 21 19 15 10 9 7 5 4 7 14 26 34 31 23 25 22 22 26 20 31
1 2 4 6 11 12 6 11 12 6 10 5 6 12 11 16 20 20 17 23 15 15 19 18 18 21 28 26 25 23 21 19 15 13 11 9 8 9 11 12 19 24 25 29 26 27 27 25 38
5 6 8 8 10 6 3 6 9 3 12 3 6 8 18 24 17 19 23 15 25 19 19 18 18 21 28 30 29 26 25 25 22 19 17 15 14 13 14 14 14 14 29 27 34 33 32 24 45
3 5 8 7 10 2 1 3 3 5 3 2 8 7 12 28 16 18 20 17 17 25 21 15 15 14 25 30 30 29 28 28 27 25 23 23 22 21 20 19 17 17 26 32 30 36 36 30 45
1 7 6 7 11 2 3 6 2 4 13 11 6 6 9 27 19 18 21 24 25 20 16 23 17 15 16 19 25 26 27 27 28 31 30 29 31 30 29 27 23 21 21 29 37 38 40 43 43
6 6 9 1 2 4 9 6 6 5 10 13 23 22 22 23 24 22 20 20 24 24 21 18 19 24 27 25 24 27 30 31 34 37 36 38 38 39 38 36 32 29 27 29 36 44 44 45 45
8 10 4 2 4 9 11 14 9 7 12 35 18 16 39 34 31 27 27 22 19 25 27 26 25 24 25 31 32 31 32 36 37 36 39 41 41 45 46 43 41 41 37 37 39 44 52 54 46
5 18 9 2 2 6 8 17 18 29 33 18 20 21 14 32 30 24 22 25 29 29 27 29 32 30 32 34 36 40 38 36 36 39 42 42 41 44 46 48 47 50 48 48 47 47 51 60 57
5 8 10 8 12 17 21 25 21 50 56 46 52 36 29 31 26 25 23 26 33 35 35 33 33 33 35 36 37 38 40 39 38 39 39 40 41 43 46 49 53 58 59 61 60 60 58 60 64
3 14 26 21 16 12 11 11 7 20 8 12 27 45 47 41 40 38 33 34 36 29 23 25 29 30 32 36 37 34 35 37 41 43 44 46 48 48 46 50 55 61 69 69 70 74 72 69 67
6 10 12 7 8 6 11 11 18 29 16 14 13 17 26 38 35 32 27 31 27 20 26 32 20 11 10 12 14 16 19 24 29 33 38 48 52 55 55 53 52 55 58 72 76 72 82 75 81
3 3 6 2 3 3 4 16 12 7 17 23 23 20 18 23 27 25 28 31 27 22 18 13 10 5 3 9 18 27 32 34 35 35 35 36 38 42 46 51 52 49 51 58 71 74 66 78 88
4 6 9 5 1 5 8 16 11 9 9 25 42 40 33 30 29 28 25 28 27 26 19 14 8 4 4 15 27 35 40 45 44 43 42 43 44 44 46 46 49 48 49 52 55 63 77 81 75
7 6 6 3 2 5 10 36 34 50 50 56 50 37 44 41 38 33 31 31 30 28 22 14 11 9 6 23 38 49 53 42 40 44 47 48 50 52 54 57 59 56 55 56 61 63 66 71 76
4 3 7 6 3 7 10 22 42 28 40 41 47 35 29 28 26 23 32 28 27 24 20 21 19 16 16 35 47 54 55 48 41 42 44 46 47 49 56 62 65 64 66 65 62 61 65 70 66
3 1 9 7 4 4 9 31 38 20 11 10 10 21 21 21 20 25 24 21 23 24 26 25 20 16 30 47 52 53 50 49 48 49 49 52 58 58 59 64 69 72 73 73 72 71 71 72 65
3 7 4 7 12 5 16 15 14 8 4 6 11 12 17 29 30 24 22 19 21 23 22 20 20 29 43 53 57 56 56 57 58 57 59 60 61 62 66 73 78 79 79 80 81 82 81 80 76
6 0 4 5 9 4 10 9 17 11 5 2 6 16 24 27 24 21 20 15 13 17 24 30 36 39 54 59 60 61 65 68 67 68 71 72 72 75 74 75 78 80 82 88 91 87 87 87 88
4 5 5 4 9 8 12 8 17 9 6 4 10 17 20 23 24 23 22 17 21 24 30 38 42 50 61 64 62 65 67 68 72 75 79 82 83 81 80 79 82 85 86 92 89 89 93 94 93
6 5 7 8 7 5 9 7 11 3 7 8 5 21 25 26 24 22 14 11 18 27 38 43 51 62 66 63 63 64 69 74 80 84 88 89 88 85 83 82 80 78 83 92 89 81 85 97 98
4 8 6 9 7 7 3 6 16 16 12 6 8 13 12 20 24 11 4 19 22 35 41 48 59 63 60 63 64 71 78 81 84 83 83 82 84 80 75 68 69 65 69 75 84 89 91 81 89
9 10 8 10 2 7 8 10 5 11 20 32 36 27 21 16 7 11 19 25 32 37 47 57 61 60 59 64 72 78 76 76 76 74 70 70 73 76 73 71 70 75 78 73 80 85 87 91 87
5 4 8 12 3 6 6 12 3 14 18 31 35 32 16 8 6 14 29 31 41 49 54 57 55 55 62 74 73 70 72 71 66 62 61 62 63 64 67 68 73 74 74 73 95 91 88 79 90
2 6 5 5 2 6 9 10 9 7 10 10 13 13 8 6 15 31 47 41 45 54 56 51 51 60 70 67 66 71 68 61 61 60 60 58 60 63 65 65 64 66 72 70 72 86 93 102 90
2 2 2 3 7 9 3 10 11 13 13 7 3 16 23 24 32 42 35 47 55 53 46 47 55 64 69 66 65 66 62 57 53 53 51 52 56 60 62 64 67 69 70 67 71 79 84 82 88
3 7 9 7 9 4 5 12 11 12 13 7 36 18 32 31 31 21 44 50 47 41 44 50 58 67 69 66 66 62 57 49 47 46 48 52 61 62 65 68 71 73 73 70 68 69 74 76 72
Wind_Direction_500mb
279 296 304 320 49 74 257 264 156 102 59 51 54 69 112 64 72 162 149 199 219 193 177 170 176 179 180 180 178 180 184 194 207 233 251 248 256 267 205 224 240 274 284 243 234 263 131 178 162
263 270 287 306 95 74 269 255 96 73 125 90 76 101 81 61 109 142 169 172 188 190 172 173 170 176 180 182 186 195 203 208 220 242 260 261 243 216 202 230 246 228 238 235 196 175 191 179 160
158 228 33 110 175 188 211 44 135 117 95 75 107 75 100 121 124 157 164 159 181 184 173 177 181 180 179 182 186 191 191 205 237 269 275 266 229 211 203 218 218 224 241 233 206 219 193 192 177
151 135 236 98 252 268 287 139 125 94 59 108 79 66 98 143 165 173 165 153 169 184 191 174 188 192 191 193 195 196 200 213 256 282 279 294 240 213 217 219 230 243 259 181 208 228 244 211 191
137 173 77 210 253 255 157 110 88 64 111 179 137 134 116 156 150 157 155 149 183 183 202 209 199 209 207 205 210 211 217 227 253 277 265 274 265 241 242 244 242 248 249 193 211 230 257 258 192
42 180 67 221 239 283 48 87 95 58 308 169 154 122 146 168 166 161 151 156 175 202 199 209 222 217 214 215 219 222 226 238 249 255 252 258 261 276 277 288 257 249 200 201 212 221 241 237 180
125 91 222 250 256 296 356 7 86 98 296 290 141 121 147 180 182 169 157 185 173 198 228 221 222 229 220 219 223 222 228 239 249 254 250 249 253 263 271 288 281 263 205 210 215 225 231 243 189
308 103 290 252 243 240 286 35 89 95 266 311 180 181 165 190 179 169 171 181 178 199 221 222 221 227 223 227 229 231 236 243 255 256 258 254 253 255 260 264 268 264 224 218 220 224 235 238 209
50 56 259 276 344 128 190 77 40 287 261 254 231 249 185 176 192 182 184 180 190 211 222 195 210 210 225 235 241 244 250 256 261 260 260 259 258 259 262 263 261 256 250 236 225 229 226 235 224
117 143 232 251 54 9 353 32 333 300 280 268 250 241 243 231 218 207 198 193 205 212 210 212 209 222 230 232 234 241 242 251 258 264 268 261 260 260 260 262 260 254 253 249 240 233 231 233 236
193 207 181 0 58 355 327 316 279 225 257 250 248 243 238 233 232 220 204 196 204 206 210 215 226 232 231 230 236 238 245 247 249 253 261 263 262 260 259 265 263 255 247 247 245 239 235 235 236
212 264 308 235 22 327 310 318 298 247 240 250 217 285 277 220 222 223 222 218 220 222 223 233 243 234 233 237 241 246 248 252 256 261 264 266 264 260 261 261 263 264 262 258 253 251 245 238 236
212 293 330 305 274 274 276 262 260 272 265 257 255 261 260 244 225 225 226 226 231 237 245 251 244 246 252 257 254 251 251 253 257 260 264 268 269 265 264 263 264 259 262 259 256 253 250 244 240
255 289 284 284 262 240 258 259 331 273 285 269 245 248 247 254 253 250 232 241 241 242 242 250 261 265 253 256 266 269 261 257 257 260 266 268 272 270 265 263 265 264 257 258 259 256 256 252 246
291 314 307 290 233 230 329 276 225 270 224 266 255 247 245 246 249 255 235 240 227 239 255 262 256 238 251 270 289 297 287 275 269 265 260 259 264 272 278 277 266 260 260 262 254 256 255 256 251
257 178 338 345 69 236 69 272 286 260 213 241 250 254 251 239 238 231 232 226 236 271 257 225 235 232 305 340 336 323 309 298 292 288 283 276 270 267 270 271 273 274 269 259 257 257 250 249 253
283 234 201 285 92 303 191 281 272 229 250 266 265 260 245 242 232 233 239 221 233 269 229 224 213 221 352 1 352 338 319 295 287 285 284 282 280 279 277 275 275 275 271 266 262 263 258 256 256
202 234 310 287 340 315 251 266 271 270 273 270 275 264 240 236 237 234 219 216 238 256 218 213 214 220 262 324 329 333 328 319 291 279 276 277 278 278 275 274 277 277 272 267 265 262 260 261 261
140 231 262 282 291 295 249 284 287 290 263 266 265 256 249 235 194 189 188 216 247 202 204 209 220 232 298 324 327 326 322 318 305 295 290 286 281 275 273 273 273 273 272 270 270 267 264 264 258
144 177 271 285 23 342 322 291 282 293 255 281 237 164 164 169 175 172 197 208 191 197 205 220 230 254 307 323 326 324 319 308 298 292 285 276 274 275 270 268 267 265 266 264 261 259 263 264 258
219 208 222 217 325 16 325 297 318 324 65 78 104 128 145 148 150 155 162 165 190 208 226 239 259 295 318 323 323 317 311 305 302 300 296 291 283 275 266 265 265 266 267 266 264 260 255 260 260
211 203 99 49 44 267 24 276 299 326 300 209 166 147 149 153 151 152 158 181 221 245 256 271 284 299 320 323 319 316 313 310 308 305 300 296 290 284 278 272 267 264 264 265 264 264 260 257 254
202 58 72 74 85 55 337 75 271 298 338 226 192 176 163 159 169 169 178 192 220 250 271 282 290 303 316 318 317 313 309 307 306 304 301 297 293 290 285 278 271 268 265 262 264 266 262 255 255
152 93 43 56 90 32 254 128 289 22 347 357 141 185 179 171 168 171 195 250 257 289 289 294 300 307 314 314 312 309 309 308 307 306 303 301 299 295 290 287 284 277 268 263 263 263 263 259 254
82 75 338 349 5 217 206 42 247 312 312 282 145 152 154 163 160 165 337 314 317 314 306 309 311 312 311 311 310 312 310 307 305 304 302 302 301 298 295 291 280 273 267 264 262 261 259 258 255
187 155 154 212 275 253 359 237 321 324 39 62 79 87 91 96 83 6 334 325 309 304 308 310 310 309 312 313 312 310 308 306 304 304 302 300 299 295 294 292 283 279 262 260 257 256 257 255 253
174 154 149 103 42 56 238 271 272 24 31 61 63 68 86 88 322 342 344 327 311 307 312 311 313 316 315 313 311 312 313 313 309 308 306 302 297 298 295 291 288 283 278 268 257 257 257 254 258
119 155 83 13 334 285 291 281 198 27 69 72 72 71 355 264 316 323 326 323 321 322 316 316 317 318 316 316 319 319 318 314 311 310 308 305 304 300 296 293 290 287 281 278 267 264 258 258 250
39 132 84 99 162 191 245 259 211 175 172 114 150 3 357 326 310 315 319 323 325 318 316 320 321 322 324 326 325 322 320 317 315 311 314 314 308 305 301 299 295 290 285 277 266 262 267 262 258
160 176 159 137 249 231 155 269 239 199 167 326 358 343 348 356 341 316 325 326 327 327 326 326 327 330 330 329 327 324 321 319 317 320 320 314 307 306 302 300 294 289 285 280 272 264 257 261 255
Wind_Speed_850mb
16 10 12 5 6 8 7 11 6 7 8 7 15 15 18 15 6 7 23 21 22 10 14 19 27 31 27 23 20 17 15 13 10 8 10 10 11 9 4 7 10 12 9 8 7 2 1 15 20
7 3 5 3 7 3 10 7 8 8 10 13 9 5 6 4 14 24 26 14 17 12 14 18 24 28 27 24 19 16 15 13 11 11 12 15 13 10 9 10 9 8 11 6 8 10 12 14 17
5 1 3 6 5 9 6 4 14 13 16 9 5 7 12 13 22 23 16 16 19 15 15 15 24 26 27 25 20 16 13 12 9 10 10 11 13 16 18 16 18 17 15 8 13 17 17 16 21
12 7 4 6 11 15 8 7 17 7 10 4 7 9 14 14 24 17 19 20 19 16 14 12 23 24 25 24 21 19 14 11 8 9 8 6 7 19 25 26 25 23 17 18 18 21 18 21 25
8 3 3 3 11 13 6 14 17 7 2 10 5 7 12 17 17 17 19 24 17 20 16 13 13 21 24 23 23 21 19 15 10 9 7 5 4 7 14 26 34 31 23 25 22 22 26 20 31
1 2 4 6 11 12 6 11 12 6 10 5 6 12 11 16 20 20 17 23 15 15 19 18 18 21 28 26 25 23 21 19 15 13 11 9 8 9 11 12 19 24 25 29 26 27 27 25 38
5 6 8 8 10 6 3 6 9 3 12 3 6 8 18 24 17 19 23 15 25 19 19 18 18 21 28 30 29 26 25 25 22 19 17 15 14 13 14 14 14 14 29 27 34 33 32 24 45
3 5 8 7 10 2 1 3 3 5 3 2 8 7 12 28 16 18 20 17 17 25 21 15 15 14 25 30 30 29 28 28 27 25 23 23 22 21 20 19 17 17 26 32 30 36 36 30 45
1 7 6 7 11 2 3 6 2 4 13 11 6 6 9 27 19 18 21 24 25 20 16 23 17 15 16 19 25 26 27 27 28 31 30 29 31 30 29 27 23 21 21 29 37 38 40 43 43
6 6 9 1 2 4 9 6 6 5 10 13 23 22 22 23 24 22 20 20 24 24 21 18 19 24 27 25 24 27 30 31 34 37 36 38 38 39 38 36 32 29 27 29 36 44 44 45 45
8 10 4 2 4 9 11 14 9 7 12 35 18 16 39 34 31 27 27 22 19 25 27 26 25 24 25 31 32 31 32 36 37 36 39 41 41 45 46 43 41 41 37 37 39 44 52 54 46
5 18 9 2 2 6 8 17 18 29 33 18 20 21 14 32 30 24 22 25 29 29 27 29 32 30 32 34 36 40 38 36 36 39 42 42 41 44 46 48 47 50 48 48 47 47 51 60 57
5 8 10 8 12 17 21 25 21 50 56 46 52 36 29 31 26 25 23 26 33 35 35 33 33 33 35 36 37 38 40 39 38 39 39 40 41 43 46 49 53 58 59 61 60 60 58 60 64
3 14 26 21 16 12 11 11 7 20 8 12 27 45 47 41 40 38 33 34 36 29 23 25 29 30 32 36 37 34 35 37 41 43 44 46 48 48 46 50 55 61 69 69 70 74 72 69 67
6 10 12 7 8 6 11 11 18 29 16 14 13 17 26 38 35 32 27 31 27 20 26 32 20 11 10 12 14 16 19 24 29 33 38 48 52 55 55 53 52 55 58 72 76 72 82 75 81
3 3 6 2 3 3 4 16 12 7 17 23 23 20 18 23 27 25 28 31 27 22 18 13 10 5 3 9 18 27 32 34 35 35 35 36 38 42 46 51 52 49 51 58 71 74 66 78 88
4 6 9 5 1 5 8 16 11 9 9 25 42 40 33 30 29 28 25 28 27 26 19 14 8 4 4 15 27 35 40 45 44 43 42 43 44 44 46 46 49 48 49 52 55 63 77 81 75
7 6 6 3 2 5 10 36 34 50 50 56 50 37 44 41 38 33 31 31 30 28 22 14 11 9 6 23 38 49 53 42 40 44 47 48 50 52 54 57 59 56 55 56 61 63 66 71 76
4 3 7 6 3 7 10 22 42 28 40 41 47 35 29 28 26 23 32 28 27 24 20 21 19 16 16 35 47 54 55 48 41 42 44 46 47 49 56 62 65 64 66 65 62 61 65 70 66
3 1 9 7 4 4 9 31 38 20 11 10 10 21 21 21 20 25 24 21 23 24 26 25 20 16 30 47 52 53 50 49 48 49 49 52 58 58 59 64 69 72 73 73 72 71 71 72 65
3 7 4 7 12 5 16 15 14 8 4 6 11 12 17 29 30 24 22 19 21 23 22 20 20 29 43 53 57 56 56 57 58 57 59 60 61 62 66 73 78 79 79 80 81 82 81 80 76
6 0 4 5 9 4 10 9 17 11 5 2 6 16 24 27 24 21 20 15 13 17 24 30 36 39 54 59 60 61 65 68 67 68 71 72 72 75 74 75 78 80 82 88 91 87 87 87 88
4 5 5 4 9 8 12 8 17 9 6 4 10 17 20 23 24 23 22 17 21 24 30 38 42 50 61 64 62 65 67 68 72 75 79 82 83 81 80 79 82 85 86 92 89 89 93 94 93
6 5 7 8 7 5 9 7 11 3 7 8 5 21 25 26 24 22 14 11 18 27 38 43 51 62 66 63 63 64 69 74 80 84 88 89 88 85 83 82 80 78 83 92 89 81 85 97 98
4 8 6 9 7 7 3 6 16 16 12 6 8 13 12 20 24 11 4 19 22 35 41 48 59 63 60 63 64 71 78 81 84 83 83 82 84 80 75 68 69 65 69 75 84 89 91 81 89
9 10 8 10 2 7 8 10 5 11 20 32 36 27 21 16 7 11 19 25 32 37 47 57 61 60 59 64 72 78 76 76 76 74 70 70 73 76 73 71 70 75 78 73 80 85 87 91 87
5 4 8 12 3 6 6 12 3 14 18 31 35 32 16 8 6 14 29 31 41 49 54 57 55 55 62 74 73 70 72 71 66 62 61 62 63 64 67 68 73 74 74 73 95 91 88 79 90
2 6 5 5 2 6 9 10 9 7 10 10 13 13 8 6 15 31 47 41 45 54 56 51 51 60 70 67 66 71 68 61 61 60 60 58 60 63 65 65 64 66 72 70 72 86 93 102 90
2 2 2 3 7 9 3 10 11 13 13 7 3 16 23 24 32 42 35 47 55 53 46 47 55 64 69 66 65 66 62 57 53 53 51 52 56 60 62 64 67 69 70 67 71 79 84 82 88
3 7 9 7 9 4 5 12 11 12 13 7 36 18 32 31 31 21 44 50 47 41 44 50 58 67 69 66 66 62 57 49 47 46 48 52 61 62 65 68 71 73 73 70 68 69 74 76 72
Wind_Direction_850mb
279 296 304 320 49 74 257 264 156 102 59 51 54 69 112 64 72 162 149 199 219 193 177 170 176 179 180 180 178 180 184 194 207 233 251 248 256 267 205 224 240 274 284 243 234 263 131 178 162
263 270 287 306 95 74 269 255 96 73 125 90 76 101 81 61 109 142 169 172 188 190 172 173 170 176 180 182 186 195 203 208 220 242 260 261 243 216 202 230 246 228 238 235 196 175 191 179 160
158 228 33 110 175 188 211 44 135 117 95 75 107 75 100 121 124 157 164 159 181 184 173 177 181 180 179 182 186 191 191 205 237 269 275 266 229 211 203 218 218 224 241 233 206 219 193 192 177
151 135 236 98 252 268 287 139 125 94 59 108 79 66 98 143 165 173 165 153 169 184 191 174 188 192 191 193 195 196 200 213 256 282 279 294 240 213 217 219 230 243 259 181 208 228 244 211 191
137 173 77 210 253 255 157 110 88 64 111 179 137 134 116 156 150 157 155 149 183 183 202 209 199 209 207 205 210 211 217 227 253 277 265 274 265 241 242 244 242 248 249 193 211 230 257 258 192
42 180 67 221 239 283 48 87 95 58 308 169 154 122 146 168 166 161 151 156 175 202 199 209 222 217 214 215 219 222 226 238 249 255 252 258 261 276 277 288 257 249 200 201 212 221 241 237 180
125 91 222 250 256 296 356 7 86 98 296 290 141 121 147 180 182 169 157 185 173 198 228 221 222 229 220 219 223 222 228 239 249 254 250 249 253 263 271 288 281 263 205 210 215 225 231 243 189
308 103 290 252 243 240 286 35 89 95 266 311 180 181 165 190 179 169 171 181 178 199 221 222 221 227 223 227 229 231 236 243 255 256 258 254 253 255 260 264 268 264 224 218 220 224 235 238 209
50 56 259 276 344 128 190 77 40 287 261 254 231 249 185 176 192 182 184 180 190 211 222 195 210 210 225 235 241 244 250 256 261 260 260 259 258 259 262 263 261 256 250 236 225 229 226 235 224
117 143 232 251 54 9 353 32 333 300 280 268 250 241 243 231 218 207 198 193 205 212 210 212 209 222 230 232 234 241 242 251 258 264 268 261 260 260 260 262 260 254 253 249 240 233 231 233 236
193 207 181 0 58 355 327 316 279 225 257 250 248 243 238 233 232 220 204 196 204 206 210 215 226 232 231 230 236 238 245 247 249 253 261 263 262 260 259 265 263 255 247 247 245 239 235 235 236
212 264 308 235 22 327 310 318 298 247 240 250 217 285 277 220 222 223 222 218 220 222 223 233 243 234 233 237 241 246 248 252 256 261 264 266 264 260 261 261 263 264 262 258 253 251 245 238 236
212 293 330 305 274 274 276 262 260 272 265 257 255 261 260 244 225 225 226 226 231 237 245 251 244 246 252 257 254 251 251 253 257 260 264 268 269 265 264 263 264 259 262 259 256 253 250 244 240
255 289 284 284 262 240 258 259 331 273 285 269 245 248 247 254 253 250 232 241 241 242 242 250 261 265 253 256 266 269 261 257 257 260 266 268 272 270 265 263 265 264 257 258 259 256 256 252 246
291 314 307 290 233 230 329 276 225 270 224 266 255 247 245 246 249 255 235 240 227 239 255 262 256 238 251 270 289 297 287 275 269 265 260 259 264 272 278 277 266 260 260 262 254 256 255 256 251
257 178 338 345 69 236 69 272 286 260 213 241 250 254 251 239 238 231 232 226 236 271 257 225 235 232 305 340 336 323 309 298 292 288 283 276 270 267 270 271 273 274 269 259 257 257 250 249 253
283 234 201 285 92 303 191 281 272 229 250 266 265 260 245 242 232 233 239 221 233 269 229 224 213 221 352 1 352 338 319 295 287 285 284 282 280 279 277 275 275 275 271 266 262 263 258 256 256
202 234 310 287 340 315 251 266 271 270 273 270 275 264 240 236 237 234 219 216 238 256 218 213 214 220 262 324 329 333 328 319 291 279 276 277 278 278 275 274 277 277 272 267 265 262 260 261 261
140 231 262 282 291 295 249 284 287 290 263 266 265 256 249 235 194 189 188 216 247 202 204 209 220 232 298 324 327 326 322 318 305 295 290 286 281 275 273 273 273 273 272 270 270 267 264 264 258
144 177 271 285 23 342 322 291 282 293 255 281 237 164 164 169 175 172 197 208 191 197 205 220 230 254 307 323 326 324 319 308 298 292 285 276 274 275 270 268 267 265 266 264 261 259 263 264 258
219 208 222 217 325 16 325 297 318 324 65 78 104 128 145 148 150 155 162 165 190 208 226 239 259 295 318 323 323 317 311 305 302 300 296 291 283 275 266 265 265 266 267 266 264 260 255 260 260
211 203 99 49 44 267 24 276 299 326 300 209 166 147 149 153 151 152 158 181 221 245 256 271 284 299 320 323 319 316 313 310 308 305 300 296 290 284 278 272 267 264 264 265 264 264 260 257 254
202 58 72 74 85 55 337 75 271 298 338 226 192 176 163 159 169 169 178 192 220 250 271 282 290 303 316 318 317 313 309 307 306 304 301 297 293 290 285 278 271 268 265 262 264 266 262 255 255
152 93 43 56 90 32 254 128 289 22 347 357 141 185 179 171 168 171 195 250 257 289 289 294 300 307 314 314 312 309 309 308 307 306 303 301 299 295 290 287 284 277 268 263 263 263 263 259 254
82 75 338 349 5 217 206 42 247 312 312 282 145 152 154 163 160 165 337 314 317 314 306 309 311 312 311 311 310 312 310 307 305 304 302 302 301 298 295 291 280 273 267 264 262 261 259 258 255
187 155 154 212 275 253 359 237 321 324 39 62 79 87 91 96 83 6 334 325 309 304 308 310 310 309 312 313 312 310 308 306 304 304 302 300 299 295 294 292 283 279 262 260 257 256 257 255 253
174 154 149 103 42 56 238 271 272 24 31 61 63 68 86 88 322 342 344 327 311 307 312 311 313 316 315 313 311 312 313 313 309 308 306 302 297 298 295 291 288 283 278 268 257 257 257 254 258
119 155 83 13 334 285 291 281 198 27 69 72 72 71 355 264 316 323 326 323 321 322 316 316 317 318 316 316 319 319 318 314 311 310 308 305 304 300 296 293 290 287 281 278 267 264 258 258 250
39 132 84 99 162 191 245 259 211 175 172 114 150 3 357 326 310 315 319 323 325 318 316 320 321 322 324 326 325 322 320 317 315 311 314 314 308 305 301 299 295 290 285 277 266 262 267 262 258
160 176 159 137 249 231 155 269 239 199 167 326 358 343 348 356 341 316 325 326 327 327 326 326 327 330 330 329 327 324 321 319 317 320 320 314 307 306 302 300 294 289 285 280 272 264 257 261 255